EW5058 Weather Reports


Display with metric or nautical units.
time (UTC)temp
F
wind
direction
speed
MPH
gust
MPH
rain 1hr
in
rain 24hr
in
rain mn
in
humidity
%
barometer
mb
20260831171818 89 338 2.0 2.0 0.00 0.01 0.01 74 1018.6
20260831170840 89 315 3.0 5.0 0.00 0.01 0.01 76 1018.6
20260831165818 87 158 1.0 2.0 0.00 0.01 0.01 76 1018.5
20260831164900 86 0.0 0.0 0.00 0.01 0.01 81 1018.6
20260831163820 86 0.0 1.0 0.00 0.01 0.01 78 1018.7
20260831162820 86 0.0 0.0 0.00 0.01 0.01 77 1018.8
20260831161820 87 45 1.0 2.0 0.00 0.01 0.01 78 1019.0
20260831160820 88 0 1.0 3.0 0.00 0.01 0.01 77 1019.0
20260831155820 88 0 1.0 2.0 0.00 0.01 0.01 77 1019.0
20260831154840 88 0 2.0 2.0 0.00 0.01 0.01 79 1019.0
20260831153820 87 315 3.0 4.0 0.00 0.01 0.01 80 1018.9
20260831152820 86 315 3.0 4.0 0.00 0.01 0.01 81 1018.9
20260831151840 86 23 4.0 7.0 0.00 0.01 0.01 82 1018.8
20260831150820 85 0 2.0 3.0 0.00 0.01 0.01 79 1018.8
20260831145820 84 338 1.0 2.0 0.00 0.01 0.01 86 1019.0
20260831144820 83 0.0 2.0 0.00 0.01 0.01 84 1019.0
20260831143820 83 45 2.0 4.0 0.00 0.01 0.01 87 1019.0
20260831142820 82 23 2.0 4.0 0.00 0.01 0.01 87 1018.9
20260831141840 82 45 2.0 4.0 0.00 0.01 0.01 91 1018.9
20260831140820 80 0.0 1.0 0.00 0.01 0.01 93 1018.9
20260831135820 79 135 2.0 2.0 0.00 0.01 0.01 95 1019.0
20260831134820 78 68 2.0 3.0 0.00 0.01 0.01 96 1019.1
20260831133839 78 0 1.0 2.0 0.00 0.01 0.01 97 1019.1
20260831132820 78 68 1.0 1.0 0.00 0.01 0.01 98 1019.1
20260831131820 78 0 1.0 3.0 0.00 0.01 0.01 99 1019.2
20260831130819 78 338 1.0 3.0 0.00 0.01 0.01 99 1019.2
20260831125839 77 90 1.0 2.0 0.00 0.01 0.01 100 1019.2
20260831124820 77 158 3.0 3.0 0.00 0.01 0.01 100 1019.1
20260831123819 76 0.0 1.0 0.00 0.01 0.01 99 1019.1
20260831122839 76 0.0 0.0 0.00 0.01 0.01 99 1019.0
20260831121839 76 180 1.0 1.0 0.00 0.01 0.01 100 1019.0
20260831120819 75 0.0 0.0 0.00 0.01 0.01 100 1018.9
20260831115820 75 0.0 0.0 0.00 0.01 0.01 99 1018.6
20260831114820 74 0.0 0.0 0.00 0.01 0.01 99 1018.6
20260831113819 73 0.0 0.0 0.00 0.01 0.01 99 1018.5
20260831112819 73 0.0 0.0 0.00 0.01 0.01 99 1018.5
20260831111820 73 0.0 0.0 0.00 0.01 0.01 99 1018.4
20260831110819 73 0.0 0.0 0.00 0.01 0.01 99 1018.4
20260831105820 72 0.0 0.0 0.00 0.01 0.01 99 1018.3
20260831104839 72 0.0 0.0 0.00 0.01 0.01 98 1018.2
20260831103819 73 0.0 1.0 0.00 0.01 0.01 98 1018.0
20260831102819 73 0.0 0.0 0.00 0.01 0.01 99 1017.9
20260831101820 73 0.0 0.0 0.00 0.01 0.01 99 1017.9
20260831100819 73 0.0 0.0 0.00 0.01 0.01 98 1017.9
20260831095819 73 0.0 0.0 0.00 0.01 0.01 98 1017.8
20260831094819 73 0.0 0.0 0.00 0.01 0.01 98 1018.0
20260831093819 74 0.0 0.0 0.00 0.01 0.01 99 1017.8
20260831092819 73 0.0 0.0 0.00 0.01 0.01 98 1017.7
20260831091839 73 0.0 0.0 0.00 0.01 0.01 98 1017.7
20260831090819 73 0.0 0.0 0.00 0.01 0.01 98 1017.7
20260831085819 74 0.0 0.0 0.00 0.01 0.01 98 1017.7
20260831084818 74 0.0 0.0 0.00 0.01 0.01 98 1017.7
20260831083819 74 0.0 0.0 0.00 0.01 0.01 98 1017.8
20260831082839 74 0.0 0.0 0.00 0.01 0.01 98 1017.8
20260831081839 74 0.0 0.0 0.00 0.01 0.01 98 1017.8
20260831080818 74 0.0 0.0 0.00 0.01 0.01 98 1017.9
20260831075819 75 0.0 0.0 0.00 0.01 0.01 98 1018.0
20260831074819 75 0.0 0.0 0.01 0.01 0.01 98 1017.9
20260831073839 75 0.0 0.0 0.01 0.01 0.01 98 1017.9
20260831072819 75 0.0 0.0 0.01 0.01 0.01 98 1017.9
20260831071818 74 0.0 0.0 0.01 0.01 0.01 98 1018.0
20260831070819 74 0.0 0.0 0.01 0.01 0.01 97 1018.0
20260831065819 75 0.0 0.0 0.01 0.01 0.01 98 1018.1
20260831064819 75 0.0 0.0 0.00 0.00 0.00 97 1018.2
20260831063818 75 0.0 0.0 0.00 0.00 0.00 97 1018.2
20260831062819 75 0.0 0.0 0.00 0.00 0.00 97 1018.2
20260831061959 75 0.0 0.0 0.00 0.00 0.00 97 1018.2
20260831060819 75 0.0 0.0 0.00 0.00 0.00 97 1018.1
20260831055818 76 0.0 0.0 0.00 0.00 0.00 97 1018.3
20260831054819 76 0.0 0.0 0.00 0.00 0.00 97 1018.1
20260831053839 76 180 1.0 2.0 0.00 0.00 0.00 97 1018.1
20260831052819 76 0.0 1.0 0.00 0.00 0.00 97 1018.1
20260831051819 76 180 2.0 3.0 0.00 0.00 0.00 97 1018.2
20260831050818 76 0.0 1.0 0.00 0.00 0.00 97 1018.3
20260831045818 76 0.0 1.0 0.00 0.00 0.00 97 1018.4
20260831044818 76 0.0 0.0 0.00 0.00 0.00 96 1018.4
20260831043818 76 0.0 0.0 0.00 0.00 0.00 96 1018.5
20260831042819 77 0.0 2.0 0.00 0.00 0.00 96 1018.4
20260831041819 77 0.0 1.0 0.00 0.00 0.00 96 1018.4
20260831040818 77 0.0 0.0 0.00 0.00 0.00 96 1018.5
20260831035820 77 0.0 0.0 0.00 0.00 0.00 96 1018.5
20260831034819 77 0.0 1.0 0.00 0.00 0.00 96 1018.6
20260831033840 77 158 1.0 3.0 0.00 0.00 0.00 96 1018.6
20260831032840 78 0.0 0.0 0.00 0.00 0.00 95 1018.6
20260831031820 78 0.0 0.0 0.00 0.00 0.00 95 1018.6
20260831030820 78 0.0 1.0 0.00 0.00 0.00 95 1018.6
20260831025820 78 0.0 2.0 0.00 0.00 0.00 95 1018.6
20260831024840 78 0.0 0.0 0.00 0.00 0.00 94 1018.8
20260831023820 79 180 1.0 3.0 0.00 0.00 0.00 93 1018.9
20260831022820 79 0.0 0.0 0.00 0.00 0.00 92 1019.0
20260831021820 79 0.0 0.0 0.00 0.00 0.00 91 1019.1
20260831020820 79 0.0 2.0 0.00 0.00 0.00 91 1019.1
20260831015840 79 158 1.0 2.0 0.00 0.00 0.00 90 1019.0
20260831014840 79 0.0 2.0 0.00 0.00 0.00 89 1019.0
20260831013820 79 0.0 0.0 0.00 0.00 0.00 88 1019.0
20260831012820 79 0.0 2.0 0.00 0.00 0.00 87 1019.0
20260831011820 79 0.0 1.0 0.00 0.00 0.00 86 1018.9
20260831010819 79 135 1.0 2.0 0.00 0.00 0.00 85 1018.9
20260831005819 79 0.0 1.0 0.00 0.00 0.00 85 1018.9
20260831004819 79 203 3.0 5.0 0.00 0.00 0.00 85 1018.9
20260831003839 79 180 1.0 3.0 0.00 0.00 0.00 86 1018.8
20260831002819 79 203 1.0 3.0 0.00 0.00 0.00 85 1018.8
20260831001819 79 0.0 0.0 0.00 0.00 0.00 85 1018.8
20260831000820 80 0.0 1.0 0.00 0.00 0.00 84 1018.8
20260830235819 80 0.0 0.0 0.00 0.00 0.00 83 1018.6
20260830234819 81 0.0 1.0 0.00 0.00 0.00 82 1018.5
20260830233819 81 0.0 0.0 0.00 0.00 0.00 82 1018.5
20260830232819 81 0.0 0.0 0.00 0.00 0.00 81 1018.7
20260830231819 82 0.0 1.0 0.00 0.00 0.00 80 1018.7
20260830230819 82 203 1.0 2.0 0.00 0.00 0.00 79 1018.8
20260830225819 83 0.0 0.0 0.00 0.00 0.00 78 1018.6
20260830224819 83 180 1.0 2.0 0.00 0.00 0.00 77 1018.5
20260830223819 84 180 1.0 3.0 0.00 0.00 0.00 77 1018.4
20260830222819 84 180 1.0 3.0 0.00 0.00 0.00 76 1018.6
20260830221819 84 180 1.0 3.0 0.00 0.00 0.00 76 1018.7
20260830220839 84 180 3.0 4.0 0.00 0.00 0.00 75 1018.6
20260830215819 84 180 1.0 3.0 0.00 0.00 0.00 75 1018.5
20260830214819 84 158 4.0 5.0 0.00 0.00 0.00 74 1018.4
20260830213819 84 180 1.0 2.0 0.00 0.00 0.00 74 1018.3
20260830212819 85 158 2.0 4.0 0.00 0.00 0.00 74 1018.1
20260830211819 85 203 2.0 4.0 0.00 0.00 0.00 74 1018.2
20260830210819 85 180 1.0 2.0 0.00 0.00 0.00 74 1018.1
20260830205819 85 225 2.0 2.0 0.00 0.00 0.00 73 1018.3
20260830204839 85 180 1.0 2.0 0.00 0.00 0.00 74 1018.3
20260830203819 85 180 1.0 4.0 0.00 0.00 0.00 73 1018.2
20260830202838 85 180 2.0 3.0 0.00 0.00 0.00 74 1018.3
20260830201818 85 180 5.0 8.0 0.00 0.00 0.00 74 1018.5
20260830200819 85 180 3.0 4.0 0.00 0.00 0.00 73 1018.6
20260830195819 85 203 2.0 4.0 0.00 0.00 0.00 71 1018.8
20260830194818 86 158 4.0 7.0 0.00 0.00 0.00 71 1018.9
20260830193819 87 158 3.0 5.0 0.00 0.00 0.00 68 1019.0
20260830192819 88 0.0 0.0 0.00 0.00 0.00 68 1019.3
20260830191818 88 225 2.0 4.0 0.00 0.00 0.00 69 1019.5
20260830190819 88 180 1.0 1.0 0.00 0.00 0.00 71 1019.6
20260830185818 88 203 2.0 3.0 0.00 0.00 0.00 72 1019.7
20260830184819 89 135 3.0 4.0 0.00 0.00 0.00 71 1019.9
20260830183818 88 180 2.0 4.0 0.00 0.00 0.00 67 1020.1
20260830182819 88 180 3.0 4.0 0.00 0.00 0.00 69 1020.3
20260830181819 89 180 5.0 9.0 0.00 0.00 0.00 69 1020.3
20260830180819 89 180 1.0 3.0 0.00 0.00 0.00 71 1020.3
20260830175839 90 203 1.0 3.0 0.00 0.00 0.00 67 1020.5
20260830174820 90 203 1.0 2.0 0.00 0.00 0.00 70 1020.6
20260830173818 91 158 1.0 2.0 0.00 0.00 0.00 69 1020.7
20260830172819 90 180 1.0 3.0 0.00 0.00 0.00 67 1020.9